CTV792 WIII-WAHS

Flight info

Callsign CTV792
Flight time 0h 43m
Altitude 27000
Route CA
Aircraft A320/M-SDE2E3FGHIRWY/LB1

Departure

Time 2026-04-16 08:04
Airport Soekarno-Hatta International Airport (WIII)

Arrival

Time 2026-04-16 08:48
Airport Jenderal Ahmad Yani Airport (WAHS)
Time Latitude Longitude Altitude Speed Heading
2026-04-16 07:36 -6.13226 106.65335 38 ft 0 kts 321°
2026-04-16 07:55 -6.13232 106.65340 38 ft 4 kts 321°
2026-04-16 07:56 -6.13253 106.65357 38 ft 4 kts 321°
2026-04-16 07:56 -6.13273 106.65374 37 ft 4 kts 304°
2026-04-16 07:56 -6.13278 106.65394 38 ft 2 kts 249°
2026-04-16 07:56 -6.13273 106.65408 38 ft 0 kts 249°
2026-04-16 07:59 -6.13274 106.65406 38 ft 3 kts 249°
2026-04-16 07:59 -6.13292 106.65358 38 ft 10 kts 249°
2026-04-16 07:59 -6.13324 106.65275 38 ft 15 kts 249°
2026-04-16 08:00 -6.13389 106.65225 38 ft 12 kts 167°
2026-04-16 08:00 -6.13466 106.65253 37 ft 13 kts 159°
2026-04-16 08:00 -6.13578 106.65297 38 ft 19 kts 158°
2026-04-16 08:00 -6.13685 106.65301 39 ft 15 kts 239°
2026-04-16 08:01 -6.13723 106.65206 37 ft 16 kts 248°
2026-04-16 08:01 -6.13777 106.65073 39 ft 25 kts 248°
2026-04-16 08:01 -6.13845 106.64901 39 ft 28 kts 248°
2026-04-16 08:01 -6.13913 106.64731 39 ft 20 kts 248°
2026-04-16 08:02 -6.13966 106.64598 39 ft 21 kts 248°
2026-04-16 08:02 -6.14075 106.64330 39 ft 14 kts 239°
2026-04-16 08:02 -6.14150 106.64296 40 ft 11 kts 176°
2026-04-16 08:03 -6.14197 106.64333 40 ft 7 kts 124°
2026-04-16 08:03 -6.14240 106.64393 41 ft 11 kts 105°
2026-04-16 08:03 -6.14228 106.64430 38 ft 2 kts 69°
2026-04-16 08:03 -6.14219 106.64454 40 ft 12 kts 69°
2026-04-16 08:04 -6.14093 106.64771 39 ft 84 kts 68°
2026-04-16 08:04 -6.13797 106.65508 39 ft 141 kts 68°
2026-04-16 08:04 -6.13384 106.66560 234 ft 169 kts 68°
2026-04-16 08:04 -6.12968 106.67658 938 ft 168 kts 66°
2026-04-16 08:05 -6.12525 106.68758 1533 ft 175 kts 66°
2026-04-16 08:05 -6.12036 106.69962 1822 ft 197 kts 66°
2026-04-16 08:05 -6.11493 106.71300 2082 ft 222 kts 67°
2026-04-16 08:05 -6.10872 106.72840 2464 ft 248 kts 68°
2026-04-16 08:06 -6.10522 106.74583 3076 ft 261 kts 89°
2026-04-16 08:06 -6.10508 106.76437 3941 ft 267 kts 89°
2026-04-16 08:06 -6.10475 106.78286 4814 ft 270 kts 89°
2026-04-16 08:06 -6.10427 106.80212 5658 ft 274 kts 89°
2026-04-16 08:07 -6.10375 106.82107 6488 ft 277 kts 89°
2026-04-16 08:07 -6.10320 106.84054 7300 ft 280 kts 89°
2026-04-16 08:07 -6.10263 106.86030 8065 ft 285 kts 89°
2026-04-16 08:07 -6.10206 106.88037 8810 ft 289 kts 89°
2026-04-16 08:08 -6.10155 106.90075 9540 ft 294 kts 89°
2026-04-16 08:08 -6.10105 106.92142 10249 ft 298 kts 89°
2026-04-16 08:08 -6.10052 106.94265 10656 ft 314 kts 89°
2026-04-16 08:08 -6.09993 106.96540 10837 ft 337 kts 89°
2026-04-16 08:09 -6.09985 106.98940 11267 ft 348 kts 96°
2026-04-16 08:09 -6.10557 107.01313 11875 ft 353 kts 113°
2026-04-16 08:09 -6.11815 107.03429 12518 ft 355 kts 131°
2026-04-16 08:09 -6.13655 107.05085 13167 ft 358 kts 148°
2026-04-16 08:10 -6.15920 107.06127 13789 ft 361 kts 162°
2026-04-16 08:10 -6.18308 107.06933 14406 ft 364 kts 161°
2026-04-16 08:10 -6.20721 107.07750 14995 ft 368 kts 161°
2026-04-16 08:10 -6.23156 107.08579 15560 ft 371 kts 161°
2026-04-16 08:11 -6.25611 107.09422 16125 ft 375 kts 161°
2026-04-16 08:11 -6.28089 107.10278 16679 ft 378 kts 161°
2026-04-16 08:11 -6.30585 107.11143 17228 ft 381 kts 161°
2026-04-16 08:11 -6.33101 107.12014 17754 ft 384 kts 160°
2026-04-16 08:12 -6.35636 107.12891 18273 ft 387 kts 160°
2026-04-16 08:12 -6.38174 107.13829 18786 ft 390 kts 154°
2026-04-16 08:12 -6.40518 107.15204 19295 ft 392 kts 143°
2026-04-16 08:12 -6.42532 107.17048 19806 ft 394 kts 130°
2026-04-16 08:13 -6.44124 107.19293 20301 ft 396 kts 118°
2026-04-16 08:13 -6.45349 107.21778 20791 ft 399 kts 116°
2026-04-16 08:13 -6.46566 107.24298 21292 ft 401 kts 116°
2026-04-16 08:13 -6.47792 107.26824 21765 ft 403 kts 116°
2026-04-16 08:14 -6.49032 107.29363 22216 ft 406 kts 116°
2026-04-16 08:14 -6.50282 107.31915 22665 ft 408 kts 116°
2026-04-16 08:14 -6.51540 107.34481 23090 ft 410 kts 116°
2026-04-16 08:14 -6.52799 107.37061 23516 ft 412 kts 116°
2026-04-16 08:15 -6.54062 107.39654 23917 ft 414 kts 116°
2026-04-16 08:15 -6.55330 107.42262 24296 ft 416 kts 116°
2026-04-16 08:15 -6.56418 107.44966 24672 ft 418 kts 107°
2026-04-16 08:15 -6.57024 107.47832 25023 ft 421 kts 97°
2026-04-16 08:16 -6.57369 107.50763 25358 ft 423 kts 97°
2026-04-16 08:16 -6.57708 107.53668 25685 ft 425 kts 97°
2026-04-16 08:16 -6.58056 107.56629 26010 ft 428 kts 97°
2026-04-16 08:16 -6.58409 107.59604 26316 ft 429 kts 97°
2026-04-16 08:17 -6.58765 107.62593 26627 ft 431 kts 97°
2026-04-16 08:17 -6.59125 107.65593 26784 ft 432 kts 97°
2026-04-16 08:17 -6.59481 107.68550 26813 ft 421 kts 97°
2026-04-16 08:17 -6.59829 107.71458 26813 ft 417 kts 97°
2026-04-16 08:18 -6.60173 107.74350 26813 ft 416 kts 97°
2026-04-16 08:19 -6.62569 107.94541 26810 ft 415 kts 97°
2026-04-16 08:20 -6.62909 107.97422 26809 ft 415 kts 97°
2026-04-16 08:20 -6.63249 108.00302 26807 ft 415 kts 97°
2026-04-16 08:20 -6.63591 108.03182 26805 ft 415 kts 97°
2026-04-16 08:20 -6.63934 108.06065 26806 ft 414 kts 97°
2026-04-16 08:21 -6.64276 108.08937 26805 ft 414 kts 97°
2026-04-16 08:21 -6.64617 108.11815 26804 ft 414 kts 97°
2026-04-16 08:21 -6.64955 108.14693 26804 ft 414 kts 97°
2026-04-16 08:21 -6.65293 108.17568 26802 ft 414 kts 97°
2026-04-16 08:22 -6.65632 108.20441 26801 ft 414 kts 97°
2026-04-16 08:22 -6.65967 108.23274 26802 ft 413 kts 97°
2026-04-16 08:22 -6.66305 108.26147 26803 ft 414 kts 97°
2026-04-16 08:22 -6.66643 108.29017 26805 ft 413 kts 97°
2026-04-16 08:23 -6.66984 108.31922 26805 ft 413 kts 97°
2026-04-16 08:23 -6.67317 108.34758 26805 ft 413 kts 97°
2026-04-16 08:23 -6.67655 108.37629 26805 ft 413 kts 97°
2026-04-16 08:23 -6.67992 108.40502 26805 ft 413 kts 97°
2026-04-16 08:24 -6.68328 108.43380 26805 ft 414 kts 97°
2026-04-16 08:24 -6.68525 108.45080 26806 ft 414 kts 97°
2026-04-16 08:24 -6.68859 108.47952 26806 ft 414 kts 97°
2026-04-16 08:24 -6.69192 108.50825 26806 ft 414 kts 97°
2026-04-16 08:25 -6.69526 108.53703 26807 ft 413 kts 97°
2026-04-16 08:25 -6.69864 108.56575 26808 ft 414 kts 98°
2026-04-16 08:25 -6.70263 108.59441 26807 ft 414 kts 99°
2026-04-16 08:25 -6.70719 108.62296 26808 ft 414 kts 100°
2026-04-16 08:26 -6.71206 108.65146 26809 ft 413 kts 101°
2026-04-16 08:26 -6.71698 108.67997 26810 ft 414 kts 100°
2026-04-16 08:26 -6.72181 108.70844 26810 ft 414 kts 100°
2026-04-16 08:26 -6.72653 108.73697 26811 ft 414 kts 100°
2026-04-16 08:27 -6.73111 108.76553 26809 ft 414 kts 99°
2026-04-16 08:27 -6.73564 108.79410 26810 ft 414 kts 99°
2026-04-16 08:27 -6.74014 108.82273 26811 ft 414 kts 99°
2026-04-16 08:27 -6.74465 108.85131 26813 ft 413 kts 100°
2026-04-16 08:28 -6.74922 108.87986 26813 ft 413 kts 100°
2026-04-16 08:28 -6.75380 108.90840 26813 ft 413 kts 100°
2026-04-16 08:28 -6.75832 108.93659 26814 ft 413 kts 100°
2026-04-16 08:28 -6.76140 108.95587 26814 ft 413 kts 100°
2026-04-16 08:29 -6.76750 108.99410 26301 ft 418 kts 100°
2026-04-16 08:29 -6.77207 109.02286 25353 ft 411 kts 100°
2026-04-16 08:29 -6.77645 109.05045 25043 ft 389 kts 100°
2026-04-16 08:29 -6.78063 109.07678 24588 ft 373 kts 100°
2026-04-16 08:30 -6.78467 109.10204 24159 ft 359 kts 100°
2026-04-16 08:30 -6.78864 109.12676 23719 ft 358 kts 100°
2026-04-16 08:30 -6.79256 109.15149 23279 ft 359 kts 99°
2026-04-16 08:30 -6.79505 109.16822 22977 ft 357 kts 99°
2026-04-16 08:31 -6.79853 109.19285 22526 ft 355 kts 98°
2026-04-16 08:31 -6.80184 109.21707 22096 ft 353 kts 98°
2026-04-16 08:31 -6.80521 109.24176 21647 ft 351 kts 98°
2026-04-16 08:31 -6.80962 109.27388 21053 ft 349 kts 98°
2026-04-16 08:32 -6.81185 109.28989 20757 ft 348 kts 98°
2026-04-16 08:32 -6.81522 109.31397 20314 ft 347 kts 98°
2026-04-16 08:32 -6.81860 109.33795 19855 ft 346 kts 98°
2026-04-16 08:32 -6.82204 109.36223 19396 ft 345 kts 98°
2026-04-16 08:33 -6.82545 109.38614 18944 ft 345 kts 98°
2026-04-16 08:33 -6.82878 109.40966 18501 ft 344 kts 98°
2026-04-16 08:33 -6.83214 109.43351 18053 ft 345 kts 98°
2026-04-16 08:33 -6.83548 109.45740 17602 ft 345 kts 98°
2026-04-16 08:34 -6.83882 109.48125 17160 ft 344 kts 98°
2026-04-16 08:34 -6.84219 109.50504 16720 ft 343 kts 98°
2026-04-16 08:34 -6.84556 109.52876 16283 ft 342 kts 98°
2026-04-16 08:34 -6.84891 109.55246 15844 ft 341 kts 98°
2026-04-16 08:35 -6.85226 109.57613 15409 ft 341 kts 98°
2026-04-16 08:35 -6.85556 109.59973 14996 ft 339 kts 98°
2026-04-16 08:35 -6.85881 109.62301 14680 ft 334 kts 98°
2026-04-16 08:35 -6.86207 109.64610 14274 ft 333 kts 98°
2026-04-16 08:36 -6.86534 109.66921 13828 ft 333 kts 98°
2026-04-16 08:36 -6.86858 109.69223 13397 ft 332 kts 98°
2026-04-16 08:36 -6.87180 109.71514 12960 ft 331 kts 98°
2026-04-16 08:36 -6.87498 109.73776 12531 ft 330 kts 98°
2026-04-16 08:37 -6.87820 109.76090 12078 ft 329 kts 98°
2026-04-16 08:37 -6.88135 109.78365 11638 ft 328 kts 98°
2026-04-16 08:37 -6.88447 109.80599 11194 ft 326 kts 98°
2026-04-16 08:37 -6.88764 109.82855 10747 ft 325 kts 98°
2026-04-16 08:38 -6.89079 109.85101 10296 ft 323 kts 98°
2026-04-16 08:38 -6.89381 109.87345 10098 ft 313 kts 95°
2026-04-16 08:38 -6.89324 109.89463 9954 ft 303 kts 82°
2026-04-16 08:38 -6.88945 109.91529 9691 ft 297 kts 79°
2026-04-16 08:39 -6.88561 109.93573 9259 ft 298 kts 79°
2026-04-16 08:39 -6.88180 109.95610 8936 ft 294 kts 79°
2026-04-16 08:39 -6.87801 109.97638 8395 ft 292 kts 79°
2026-04-16 08:39 -6.87432 109.99626 7779 ft 286 kts 80°
2026-04-16 08:40 -6.87069 110.01584 7274 ft 285 kts 80°
2026-04-16 08:40 -6.86708 110.03538 6902 ft 282 kts 79°
2026-04-16 08:40 -6.86345 110.05483 6452 ft 282 kts 80°
2026-04-16 08:40 -6.85990 110.07397 5987 ft 275 kts 80°
2026-04-16 08:41 -6.85642 110.09283 5297 ft 272 kts 80°
2026-04-16 08:41 -6.85301 110.11137 4736 ft 268 kts 80°
2026-04-16 08:41 -6.84967 110.12949 4356 ft 254 kts 80°
2026-04-16 08:41 -6.84655 110.14621 4197 ft 234 kts 80°
2026-04-16 08:42 -6.84353 110.16229 3875 ft 232 kts 80°
2026-04-16 08:42 -6.84061 110.17796 3701 ft 223 kts 80°
2026-04-16 08:42 -6.83784 110.19300 3569 ft 214 kts 81°
2026-04-16 08:42 -6.83768 110.20747 3467 ft 202 kts 101°
2026-04-16 08:43 -6.84240 110.22039 3368 ft 196 kts 121°
2026-04-16 08:43 -6.85076 110.23114 3294 ft 196 kts 129°
2026-04-16 08:43 -6.85937 110.24135 3108 ft 183 kts 129°
2026-04-16 08:43 -6.86729 110.25075 2863 ft 170 kts 129°
2026-04-16 08:44 -6.87472 110.25950 2639 ft 159 kts 129°
2026-04-16 08:44 -6.88163 110.26768 2467 ft 148 kts 128°
2026-04-16 08:44 -6.88820 110.27548 2259 ft 145 kts 127°
2026-04-16 08:44 -6.89473 110.28321 2068 ft 145 kts 128°
2026-04-16 08:45 -6.90124 110.29092 1871 ft 145 kts 127°
2026-04-16 08:45 -6.90775 110.29865 1686 ft 145 kts 128°
2026-04-16 08:45 -6.91430 110.30643 1484 ft 146 kts 128°
2026-04-16 08:45 -6.92090 110.31424 1291 ft 147 kts 127°
2026-04-16 08:46 -6.92755 110.32211 1097 ft 148 kts 128°
2026-04-16 08:46 -6.93424 110.33003 901 ft 149 kts 128°
2026-04-16 08:46 -6.94093 110.33796 703 ft 148 kts 128°
2026-04-16 08:46 -6.94755 110.34592 499 ft 148 kts 127°
2026-04-16 08:47 -6.95409 110.35376 310 ft 146 kts 129°
2026-04-16 08:47 -6.96065 110.36144 91 ft 144 kts 129°
2026-04-16 08:47 -6.96701 110.36897 9 ft 132 kts 129°
2026-04-16 08:47 -6.97194 110.37482 4 ft 85 kts 130°
2026-04-16 08:48 -6.97458 110.37794 7 ft 36 kts 130°
2026-04-16 08:48 -6.97576 110.37906 7 ft 15 kts 162°
2026-04-16 08:48 -6.97568 110.37921 6 ft 7 kts 328°
2026-04-16 08:48 -6.97518 110.37862 7 ft 15 kts 309°
2026-04-16 08:49 -6.97430 110.37759 7 ft 24 kts 310°
2026-04-16 08:49 -6.97304 110.37611 5 ft 30 kts 310°
2026-04-16 08:49 -6.97166 110.37448 4 ft 31 kts 310°
2026-04-16 08:49 -6.97073 110.37439 8 ft 13 kts 39°
2026-04-16 08:50 -6.96997 110.37503 17 ft 14 kts 40°
2026-04-16 08:50 -6.96931 110.37558 18 ft 10 kts 33°
2026-04-16 08:50 -6.96881 110.37533 18 ft 8 kts 310°
2026-04-16 08:50 -6.96849 110.37494 18 ft 6 kts 310°
2026-04-16 08:51 -6.96823 110.37463 20 ft 5 kts 310°
2026-04-16 08:51 -6.96797 110.37444 19 ft 6 kts
2026-04-16 08:51 -6.96763 110.37468 19 ft 5 kts 37°
2026-04-16 08:51 -6.96744 110.37484 19 ft 1 kts 40°
2026-04-16 08:52 -6.96740 110.37487 19 ft 0 kts 40°
2026-04-16 08:52 -6.96736 110.37490 20 ft 0 kts 40°